EW2279 Weather Reports


Display with metric or nautical units.
time (UTC)temp
F
wind
direction
speed
MPH
gust
MPH
rain 1hr
in
rain 24hr
in
rain mn
in
humidity
%
barometer
mb
20260906063535 68 135 0.0 0.0 0.00 0.00 0.00 97 1014.7
20260906063027 68 135 0.0 0.0 0.00 0.00 0.00 97 1015.2
20260906062737 68 135 0.0 0.0 0.00 0.00 0.00 97 1015.2
20260906060707 0 0.0 0.0 0.00 0.00 0.00 1015.5
20260906053940 69 135 0.0 0.0 0.00 0.00 0.00 96 1015.5
20260906053426 69 135 0.0 0.0 0.00 0.00 0.00 96 1015.5
20260906052906 70 135 0.0 0.0 0.00 0.00 0.00 96 1015.5
20260906051506 70 135 0.0 0.0 0.00 0.00 0.00 96 1015.9
20260906050836 70 135 0.0 0.0 0.00 0.00 0.00 96 1015.9
20260906045708 0 0.0 0.0 0.00 0.00 0.00 1015.9
20260906043839 0 0.0 0.0 0.00 0.00 0.00 1015.9
20260906041008 0 0.0 0.0 0.00 0.00 0.00 1016.3
20260906034621 70 135 0.0 0.0 0.00 0.00 0.00 96 1015.9
20260906034105 0 0.0 0.0 0.00 0.00 0.00 1016.3
20260906030604 70 135 0.0 0.0 0.00 0.00 0.00 95 1016.6
20260906025604 69 135 0.0 0.0 0.00 0.00 0.00 95 1016.3
20260906024706 69 135 0.0 0.0 0.00 0.00 0.00 95 1016.3
20260906024206 69 135 0.0 0.0 0.00 0.00 0.00 95 1016.3
20260906023534 69 112 0.0 0.0 0.00 0.00 0.00 95 1015.9
20260906023036 70 135 0.0 0.0 0.00 0.00 0.00 95 1015.9
20260906022438 70 135 0.0 0.0 0.00 0.00 0.00 95 1015.5
20260906022215 70 135 0.0 0.0 0.00 0.00 0.00 94 1015.9
20260906020443 70 135 0.0 0.0 0.00 0.00 0.00 93 1015.5
20260906015933 70 135 0.0 0.0 0.00 0.00 0.00 93 1015.5
20260906015232 70 135 0.0 0.0 0.00 0.00 0.00 93 1015.5
20260906014604 70 135 0.0 0.0 0.00 0.00 0.00 93 1015.5
20260906013638 70 135 0.0 0.0 0.00 0.00 0.00 93 1015.5
20260906013133 70 135 0.0 0.0 0.00 0.00 0.00 93 1015.2
20260906012907 71 135 0.0 0.0 0.00 0.00 0.00 92 1015.2
20260906011004 0 0.0 0.0 0.00 0.00 0.00 1015.2
20260906005402 71 135 0.0 0.0 0.00 0.00 0.00 92 1015.2
20260906004400 71 135 0.0 0.0 0.00 0.00 0.00 92 1015.5
20260906003853 71 135 0.0 0.0 0.00 0.00 0.00 91 1015.2
20260906003350 72 135 0.0 0.0 0.00 0.00 0.00 90 1015.2
20260906002834 72 135 0.0 0.0 0.00 0.00 0.00 89 1014.7
20260906002220 72 135 0.0 0.0 0.00 0.00 0.00 89 1015.2
20260906001702 72 135 0.0 0.0 0.00 0.00 0.00 88 1015.2
20260906001202 72 135 0.0 0.0 0.00 0.00 0.00 88 1015.2
20260906000703 73 135 0.0 0.0 0.00 0.00 0.00 88 1015.2
20260906000047 73 135 0.0 0.0 0.00 0.00 0.00 88 1014.7
20260905235533 0 0.0 0.0 0.00 0.00 0.00 1014.7
20260905232832 75 135 0.0 0.0 0.00 0.00 0.00 85 1014.4
20260905232101 0 0.0 0.0 0.00 0.00 0.00 1014.4
20260905225831 77 135 0.0 0.0 0.00 0.00 0.00 83 1014.4
20260905225305 0 0.0 0.0 0.00 0.00 0.00 1014.4
20260905223632 0 0.0 0.0 0.00 0.00 0.00 1014.4
20260905221046 80 135 0.0 0.0 0.00 0.00 0.00 75 1014.4
20260905220532 0 0.0 0.0 0.00 0.00 0.00 1014.4
20260905213001 0 0.0 0.0 0.00 0.00 0.00 1014.4
20260905210331 0 0.0 0.0 0.00 0.00 0.00 1015.2
20260905205001 87 135 0.0 0.0 0.00 0.00 0.00 63 1015.2
20260905204435 86 135 0.0 0.0 0.00 0.00 0.00 66 1015.2
20260905203929 0 0.0 0.0 0.00 0.00 0.00 1015.2
20260905201801 83 135 0.0 0.0 0.00 0.00 0.00 69 1015.2
20260905201258 83 135 0.0 0.0 0.00 0.00 0.00 73 1015.2
20260905200428 79 135 0.0 0.0 0.00 0.00 0.00 80 1015.5
20260905192559 0 0.0 0.0 0.00 0.00 0.00 1016.3
20260905190748 74 135 0.0 0.0 0.00 0.00 0.00 83 1016.6
20260905190229 0 0.0 0.0 0.00 0.00 0.00 1016.6
20260905181444 79 135 0.0 0.0 0.00 0.00 0.00 75 1016.6
20260905180928 81 135 0.0 0.0 0.00 0.00 0.00 72 1016.3
20260905175559 0 0.0 0.0 0.00 0.00 0.00 1016.6
20260905173859 85 135 0.0 0.0 0.00 0.00 0.00 75 1016.6
20260905172847 85 135 0.0 0.0 0.00 0.00 0.00 75 1016.6
20260905172344 85 135 0.0 0.0 0.00 0.00 0.00 76 1017.0
20260905171830 85 135 0.0 0.0 0.00 0.00 0.00 76 1017.0
20260905171325 84 135 0.0 0.0 0.00 0.00 0.00 78 1017.0
20260905170755 82 135 0.0 0.0 0.00 0.00 0.00 82 1017.0
20260905165925 79 135 0.0 0.0 0.00 0.00 0.00 84 1017.0
20260905165228 79 135 0.0 0.0 0.00 0.00 0.00 78 1017.0
20260905164057 79 135 0.0 0.0 0.00 0.00 0.00 78 1017.0
20260905163559 80 135 0.0 0.0 0.00 0.00 0.00 75 1017.0
20260905163055 83 135 0.0 0.0 0.00 0.00 0.00 72 1017.3
20260905162556 0 0.0 0.0 0.00 0.00 0.00 1017.3
20260905160954 0 0.0 0.0 0.00 0.00 0.00 1017.3
20260905155425 0 0.0 0.0 0.00 0.00 0.00 1017.3
20260905151425 89 135 0.0 0.0 0.00 0.00 0.00 63 1017.0
20260905150925 0 0.0 0.0 0.00 0.00 0.00 1017.0
20260905145325 89 135 0.0 0.0 0.00 0.00 0.00 70 1017.0
20260905143442 89 135 0.0 0.0 0.00 0.00 0.00 72 1017.0
20260905142934 88 135 0.0 0.0 0.00 0.00 0.00 73 1017.0
20260905142426 88 135 0.0 0.0 0.00 0.00 0.00 75 1017.0
20260905141924 0 0.0 0.0 0.00 0.00 0.00 1017.0
20260905135321 81 135 0.0 0.0 0.00 0.00 0.00 92 1017.3
20260905134723 81 135 0.0 0.0 0.00 0.00 0.00 92 1017.3
20260905134221 78 135 0.0 0.0 0.00 0.00 0.00 97 1017.3
20260905133724 0 0.0 0.0 0.00 0.00 0.00 1017.3
20260905132222 71 135 0.0 0.0 0.00 0.00 0.00 98 1017.8
20260905131312 71 135 0.0 0.0 0.00 0.00 0.00 98 1018.1
20260905130813 70 135 0.0 0.0 0.00 0.00 0.00 98 1018.1
20260905130752 70 67 0.0 0.0 0.00 0.00 0.00 98 1018.1
20260905124859 69 135 0.0 0.0 0.00 0.00 0.00 98 1018.1
20260905124337 69 135 0.0 0.0 0.00 0.00 0.00 98 1018.1
20260905123827 69 135 0.0 0.0 0.00 0.00 0.00 98 1018.1
20260905123321 68 135 0.0 0.0 0.00 0.00 0.00 98 1017.8
20260905122521 68 135 0.0 0.0 0.00 0.00 0.00 98 1018.1
20260905122020 68 135 0.0 0.0 0.00 0.00 0.00 98 1018.1
20260905121022 0 0.0 0.0 0.00 0.00 0.00 1017.8
20260905115253 67 135 0.0 0.0 0.00 0.00 0.00 97 1017.8
20260905114210 67 135 0.0 0.0 0.00 0.00 0.00 97 1017.3
20260905113653 0 0.0 0.0 0.00 0.00 0.00 1017.8
20260905111652 67 0.0 0.0 0.00 0.00 0.00 97 1017.3
20260905110220 67 135 0.0 0.0 0.00 0.00 0.00 97 1017.0
20260905104628 67 135 0.0 0.0 0.00 0.00 0.00 97 1017.0
20260905104121 68 135 0.0 0.0 0.00 0.00 0.00 97 1017.0
20260905103320 68 135 0.0 0.0 0.00 0.00 0.00 97 1016.6
20260905103051 0 0.0 0.0 0.00 0.00 0.00 1016.6
20260905094720 68 135 0.0 0.0 0.00 0.00 0.00 96 1016.6
20260905094220 68 135 0.0 0.0 0.00 0.00 0.00 96 1016.3
20260905093151 0 0.0 0.0 0.00 0.00 0.00 1016.6
20260905090648 68 135 0.0 0.0 0.00 0.00 0.00 96 1016.6
20260905085549 68 135 0.0 0.0 0.00 0.00 0.00 96 1016.6
20260905084632 68 135 0.0 0.0 0.00 0.00 0.00 96 1016.6
20260905084128 68 135 0.0 0.0 0.00 0.00 0.00 96 1017.0
20260905083625 68 135 0.0 0.0 0.00 0.00 0.00 96 1017.0
20260905083117 68 135 0.0 0.0 0.00 0.00 0.00 96 1017.0
20260905082517 68 135 0.0 0.0 0.00 0.00 0.00 96 1017.0
20260905081818 0 0.0 0.0 0.00 0.00 0.00 1017.0
20260905075147 68 135 0.0 0.0 0.00 0.00 0.00 95 1017.0
20260905074647 68 135 0.0 0.0 0.00 0.00 0.00 95 1017.3
20260905073547 68 135 0.0 0.0 0.00 0.00 0.00 95 1017.3
20260905072749 0 0.0 0.0 0.00 0.00 0.00 1017.3
20260905065548 0 0.0 0.0 0.00 0.00 0.00 1017.8